Regional Weather Roundup
Issued by NWS Kansas City/Pleasant Hill, MO

Home | Current Version | Previous Version | Text Only | Print | Product List | Glossary On
Versions: 1 2 3 4 5 6 7 8 9 10 11 12 13 14 15 16 17 18 19 20 21 22 23 24 25 26 27
000
ASUS43 KEAX 170910
RWREAX

WEATHER ROUNDUP FOR EASTERN KANSAS AND NORTHWEST MISSOURI
NATIONAL WEATHER SERVICE KANSAS CITY/PLEASANT HILL MO
400 AM CDT THU AUG 17 2017

KSZ040-057-103>105-MOZ028-029-037-043-171000-
...KANSAS CITY METROPOLITAN AREA...

CITY           SKY/WX    TMP DP  RH WIND       PRES   REMARKS
K.C. INTL      CLOUDY    67  66  97 W5        29.86R
K.C. DOWNTOWN  CLOUDY    70  68  93 W5        29.85S
LEES SUMMIT    CLOUDY    68  68 100 W7        29.86F
OLATHE - IXD   CLOUDY    68  67  96 SW7       29.89R
OLATHE - OJC   CLOUDY    67  67 100 SW5       29.87F
LAWRENCE       CLOUDY    67  67 100 W7        29.88R

$$

MOZ001>008-011>017-020>025-030>033-038>040-044>046-053-054-171000-
...NORTHERN AND CENTRAL MISSOURI...

CITY           SKY/WX    TMP DP  RH WIND       PRES   REMARKS
ST. JOSEPH     FOG       66  64  93 NW3       29.87R VSB 1
WARRENSBURG    CLOUDY    70  66  88 SW6       29.86S
WHITEMAN AFB   MOCLDY    69  69 100 SW8       29.86R
CLINTON        CLOUDY    68  68 100 SW7       29.89R
SEDALIA        CLOUDY    70  70 100 SW9       29.87S
WARSAW         NOT AVBL
CHILLICOTHE      N/A     69  69 100 S6        29.84R
KIRKSVILLE     CLOUDY    69  67  93 SW8       29.82S

$$

MOZ041-047>049-056>058-063>065-088>090-097-171000-
...EASTERN AND SOUTHERN MISSOURI...

CITY           SKY/WX    TMP DP  RH WIND       PRES   REMARKS
ST. LOUIS INTL LGT RAIN  70  69  97 S7        29.80F
SPIRIT OF STL  CLOUDY    69  68  96 W15       29.84R
COLUMBIA       MOCLDY    68  67  96 S9        29.86F
JEFFERSON CITY MOCLDY    69  69 100 S5        29.87S
ROLLA          CLOUDY    65  65 100 SW8       29.92R
OSAGE BEACH    CLOUDY    68  67  96 SW6       29.90F
SPRINGFIELD    CLOUDY    67  67 100 CALM      29.91R
BRANSON        LGT RAIN  66  66 100 SW7       29.95S
JOPLIN         CLOUDY    69  68  96 SW8       29.92R
WEST PLAINS    CLOUDY    69  68  96 SW6       29.95R

$$

IAZ060-094-KSZ022-034>040-054-083-096-NEZ052-066-093-171000-
...KANSAS...SOUTHEAST NEBRASKA AND IOWA...

CITY           SKY/WX    TMP DP  RH WIND       PRES   REMARKS
TOPEKA         CLOUDY    68  67  96 SW6       29.89R
MANHATTAN      PTCLDY    64  63  96 CALM      29.92R
EMPORIA        CLOUDY    67  65  93 W6        29.92R
CHANUTE        FOG       68  68 100 SW8       29.91R VSB 1
WICHITA        PTCLDY    68  65  90 NW8       29.96R
OMAHA          MOCLDY    67  61  81 W7        29.83R
LINCOLN        CLEAR     64  60  87 W6        29.89R
FALLS CITY     CLEAR     64  61  90 W7        29.87R
LAMONI           N/A     66  64  93 W10       29.81R
DES MOINES     CLOUDY    68  64  87 W14       29.76S

$$





USA.gov is the U.S. government's official web portal to all federal, state and local government web resources and services.